Location: *
(33.3200°N, 8.3381°W)
Time: 13:45:21
(UTC+00:00)

CZ-4 R/B - Pass Details

Date: 09 April 2020
Orbit: 531 x 598 km, 97.8° (Epoch: 04 June)

Event Time Altitude Azimuth Distance (km) Brightness Sun altitude
Rises 19:29:51 0° 183° (S) 2,664 4.7 -6.9°
Reaches altitude 10° 19:32:03 10° 191° (SSW) 1,775 3.9 -7.4°
Maximum altitude 19:35:38 39° 261° (W) 813 2.8 -8.1°
Drops below altitude 10° 19:39:15 10° 331° (NNW) 1,786 4.6 -8.8°
Sets 19:41:29 0° 339° (NNW) 2,684 5.4 -9.3°
